363  
ASUS42 KFFC 310810  
RWRGA  
WEATHER ROUNDUP FOR GEORGIA  
NATIONAL WEATHER SERVICE PEACHTREE CITY GA  
400 AM EDT SUN MAY 31 2020  
 
NOTE: "FAIR" INDICATES FEW OR NO CLOUDS BELOW 12,000 FEET WITH NO  
SIGNIFICANT WEATHER AND/OR S TO VISIBILITY
.  
 
* = USE WITH CAUTION. THE STATIONS MARKED WITH AN ASTERISK MAY NOT  
REPORT WEATHER SUCH AS PRECIPITATION, FOG, OR THUNDER AND ARE NOT  
QUALITY CONTROLLED BY NWS.  
 
THE REMARK "TC" DENOTES TEMPERATURE READING IN DEGREES CELSIUS.  
 
GAZ001>058-310900-  
NORTH GEORGIA  
 
CITY SKY/WX TMP DP RH WIND PRES REMARKS
 
ATLANTA CLEAR 66 57 72 NW8 30.04S  
ATHENS CLEAR 64 59 83 W3 30.02S  
CHAMBLEE CLEAR 61 58 90 CALM 30.03S  
PEACHTREE CITY CLEAR 64 61 90 NW3 30.04S  
ROME CLEAR 65 55 70 NE5 30.05S  
WEST ATLANTA CLEAR 65 56 72 CALM 30.04S  
GAINESVILLE CLEAR 63 56 78 CALM 30.05S  
CARTERSVILLE CLEAR 62 57 83 CALM 30.06S  
 
 
CITY SKY/WX TMP DP RH WIND PRES REMARKS
 
DALTON* CLEAR 63 54 72 NW5 30.08S  
LAWRENCEVILLE* CLEAR 63 59 87 CALM 30.03S  
MARIETTA CLEAR 63 56 78 W3 30.04S  
KENNESAW* CLEAR 63 57 81 SW3 30.06R  
CANTON* CLEAR 64 54 68 NW3 30.05S  
BLAIRSVILLE* CLEAR 53 52 98 CALM 30.10S  

 
 
GAZ059>098-102>109-310900-  
CENTRAL GEORGIA  
 
CITY SKY/WX TMP DP RH WIND PRES REMARKS
 
AUGUSTA-BUSH CLEAR 68 66 93 CALM 29.96S  
AUGUSTA-DANIEL CLEAR 73 61 65 NW7 29.98S  
COLUMBUS CLEAR 71 61 70 N5 30.02S  
MACON CLEAR 66 63 90 CALM 30.00S  
ROBINS AFB CLEAR 67 65 91 CALM 29.99F  
 
 
CITY SKY/WX TMP DP RH WIND PRES REMARKS
 
LAGRANGE* CLEAR 61 60 97 CALM 30.04S  
SYLVANIA* CLEAR 72 70 94 CALM 29.99S  
MILLEDGEVILLE* CLEAR 66 64 94 CALM 30.00F  

 
 
GAZ099>101-110>166-310900-  
SOUTH GEORGIA  
 
CITY SKY/WX TMP DP RH WIND PRES REMARKS
 
SAVANNAH PTCLDY 73 71 93 W5 29.96F  
VALDOSTA CLEAR 70 67 90 CALM 29.98F  
ALMA PTCLDY 72 70 93 CALM 29.98F  
ST SIMONS MOCLDY 76 75 97 W6 29.96F  
FT STEWART CLOUDY 75 70 85 NW3 29.94F  
ALBANY CLEAR 71 68 90 N5 30.01F  
HUNTER AFB MOCLDY 73 69 87 W6 29.93F  
MOODY AFB CLEAR 74 71 91 CALM 29.97F  
BRUNSWICK CLOUDY 74 72 91 SW10 29.95F  
 
 
CITY SKY/WX TMP DP RH WIND PRES REMARKS
 
BAINBRIDGE* CLEAR 72 71 95 CALM 30.00F  
MOULTRIE* CLEAR 72 70 94 CALM 30.00F  
VIDALIA* CLEAR 72 68 88 CALM 29.99F  
WAYCROSS* CLEAR 72 67 84 SW3 29.97F  
DOUGLAS* MOCLDY 73 73 98 CALM 30.00S FOG  

 
 
 
CLICK HERE TO GO TO PREVIOUS BULLETINS.

The Nexlab GA Page Main Text Page